Regional Weather Roundup
Issued by NWS Grand Forks, ND

Home | Current Version | Previous Version | Graphics & Text | Print | Product List | Glossary On
Versions: 1 2 3 4 5 6 7 8 9 10 11 12 13 14 15 16 17 18 19 20 21 22 23 24 25 26 27 28 29 30 31 32 33 34 35 36 37 38 39 40 41 42 43 44 45 46 47 48 49 50
348
ASUS43 KFGF 051010
RWRFGF
PRAIRIE TO PINES  WEATHER ROUNDUP
NATIONAL WEATHER SERVICE EASTERN NORTH DAKOTA/GRAND FORKS ND
500 AM CDT THU MAY 05 2016

 **SATELLITE DATA USED TO AUGMENT SKY COVER AT AUTOMATED STATIONS**
 *****  WEATHER ACROSS EASTERN NORTH DAKOTA  *****

CITY           SKY/WX    TMP DP  RH WIND       PRES   REMARKS
GRAND FORKS    CLEAR     53  33  46 S10       29.83S
GRAND FRKS AFB CLEAR     59  39  47 W10       29.82F
DEVILS LAKE    CLEAR     55  45  68 W8        29.86S
FARGO          PTCLDY    55  30  38 S9        29.90F
WAHPETON ARPT  SUNNY     46  30  53 SE7       29.95S
$$

 ***** WEATHER ACROSS CENTRAL AND WESTERN NORTH DAKOTA  *****

CITY           SKY/WX    TMP DP  RH WIND       PRES   REMARKS
BISMARCK       CLEAR     56  44  64 W3        29.93R
MINOT          CLEAR     66  41  40 SW14G23   29.84S
JAMESTOWN      CLEAR     54  42  64 SW8       29.89F
MINOT AFB      CLEAR     60  43  53 SW13      29.82S
GARRISON         N/A     50  41  71 SW5       29.89S
WILLISTON      CLEAR     47  41  80 S3        29.85S
DICKINSON      CLEAR     50  40  68 S8        29.90F
HETTINGER      CLEAR     53  40  61 SE6       29.96F
$$

 *****  OTHER AIRPORT OBSERVATIONS IN OUR AREA  *****

CITY           SKY/WX    TMP DP  RH WIND       PRES   REMARKS
WALHALLA       FAIR      64  43  45 W16G23    29.78S
GRAFTON AIRPOR FAIR      46  36  66 S8        29.82S
VALLEY CITY AR FAIR      50  39  66 SW10      29.92S
CANDO          FAIR      55  45  67 W8        29.87S
CAVALIER APRT  FAIR      66  43  42 W18G28    29.77F
GWINNER        FAIR      52  36  54 SW12      29.94S
SHEYENNE NWR     N/A     47  33  59 SW7       29.95S
ROLLA          FAIR      59  41  51 W16       29.84S
 ***** THE ABOVE OBSERVATIONS ARE NON NWS ARE NOT QUALITY
       CONTROLLED AND MAY MIS-REPORT RAIN FOR SNOW...
$$

  *****  WEATHER ACROSS NORTHERN MINNESOTA  *****

CITY           SKY/WX    TMP DP  RH WIND       PRES   REMARKS
FLAG ISLAND    PTCLDY    50  36  57 SE17      29.86S
WARROAD        PTCLDY    52  34  50 S12G18    29.87S
ROSEAU         CLEAR     52  32  46 S16       29.85F
HALLOCK        CLEAR     50  28  43 S12       29.80S
THF RVR FALLS  PTCLDY    52  28  40 SE12      29.89F
BAUDETTE       CLOUDY    46  33  60 SE10      29.91S
WASKISH        LGT RAIN  46  30  53 S6        29.93F
CROOKSTON      CLEAR     54  30  40 S15       29.87F
STEPHEN NDAWN    N/A     54  30  40 S12         N/A
GREENBUSH NDAW   N/A     50  34  53 S10         N/A
$$
  *****  WEATHER ACROSS CENTRAL AND WEST MINNESOTA  *****

CITY           SKY/WX    TMP DP  RH WIND       PRES   REMARKS
FOSSTON        PTCLDY    52  27  37 S10       29.93R
BEMIDJI        CLOUDY    45  29  53 SE3       29.97R
PARK RAPIDS    PTCLDY    44  30  57 SE3       29.98R
ELBOW LAKE     FAIR      46  33  60 E8        29.97S
WADENA         CLEAR     43  28  56 CALM      29.98R
DETROIT LAKES  CLEAR     48  37  66 SE6       29.96R
MOORHEAD       CLEAR     50  32  50 S10       29.92F
FERGUS FALLS   PTCLDY    46  36  66 SE7       29.94S
MORRIS MN      CLEAR     41  32  70 SE6       29.97S
STAPLES        CLEAR     36  30  80 CALM      29.98S
$$
  *****  WEATHER ELSEWHERE ACROSS MINNESOTA  *****

CITY           SKY/WX    TMP DP  RH WIND       PRES   REMARKS
DULUTH         LGT RAIN  40  33  76 CALM      30.01R
INTRNTL FALLS  CLOUDY    45  28  51 S7        29.91F
ELY            CLOUDY    39  28  65 SW6       29.97S
CLOQUET        LGT RAIN  39  34  81 CALM      30.00R
WHEATON        CLEAR     55  34  44 S9        29.97F
BRAINERD       CLEAR     38  31  76 CALM      29.99S
HIBBING        CLOUDY    37  35  92 CALM      30.00R
ALEXANDRIA     CLEAR     47  28  47 S7        29.99S
SAINT CLOUD    CLOUDY    40  35  83 CALM      30.00R
MINNEAPOLIS    MOCLDY    46  27  47 CALM      30.03R
$$

  *****  WEATHER ACROSS SOUTH DAKOTA  *****

CITY           SKY/WX    TMP DP  RH WIND       PRES   REMARKS
SIOUX FALLS    CLEAR     41  35  79 CALM      30.03R
BROOKINGS      CLEAR     38  35  89 CALM      30.01S
WATERTOWN      CLEAR     43  35  73 S5        29.99S
HURON          CLEAR     45  40  82 S5        29.99S
SISSETON         N/A     50  32  50 S6        29.94S
ABERDEEN       CLEAR     40  35  83 S8        29.97S
MITCHELL       CLEAR     48  42  80 CALM      30.02S
PIERRE         CLEAR     49  41  74 SW6       29.98F
MOBRIDGE       CLEAR     49  44  83 SE9       29.94S
RAPID CITY     CLEAR     46  41  82 SE7       29.97F
$$

  *****  SOME WEATHER IN NEARBY STATES *****

CITY           SKY/WX    TMP DP  RH WIND       PRES   REMARKS
GLASGOW MT     CLEAR     55  40  56 SE12      29.81F
GREAT FALLS MT PTCLDY    45  38  76 W5        29.87F
CHEYENNE WY    CLOUDY    48  34  58 SW8       30.14F
SCOTTSBLUFF NE CLEAR     48  40  73 E7        30.06F
OMAHA NE       CLEAR     45  42  89 N3        30.03R
DES MOINES IA  CLEAR     46  37  71 CALM      30.02R
DAVENPORT IA   CLEAR     38  33  82 NE7       29.97R
CHICAGO IL     MOCLDY    42  33  70 N15       29.89R
EAU CLAIRE WI  CLEAR     31  29  92 CALM      30.02R
LA CROSSE WI   CLEAR     40  32  73 N5        30.02R
$$

  *****  SOME NATIONAL WEATHER *****

CITY           SKY/WX    TMP DP  RH WIND       PRES   REMARKS
LA GUARDIA NY  CLOUDY    48  45  89 N12G17    29.70S
RALEIGH NC     FOG       55  54  96 E5        29.55S VSB 1/4
ATLANTA GA     PTCLDY    50  47  89 NW13      29.75R
NEW ORLEANS LA PTCLDY    63  56  78 W5        29.87R
OKLAHOMA CITY  CLEAR     52  43  71 NW5       30.06R
ALBUQUERQUE NM CLEAR     57  24  28 N7        30.19R
SALT LAKE CITY CLOUDY    66  34  30 SE9       29.92F
LOS ANGELES CA MOCLDY    59  53  80 W6        29.91F
BOISE ID       MOCLDY    63  44  50 W7        29.87S
SEATTLE WA     CLOUDY    54  45  71 NE5       30.03S
$$

*** WEATHER ACROSS MANITOBA...SASKATCHEWAN AND ONTARIO ***
                ***ONTARIO***

CITY           SKY/WX    TMP DP  RH WIND       PRES   REMARKS
GERALDTON      FOG       30  30 100 S6        29.94F VSB 1/8 WCI  24
THUNDER BAY    MOCLDY    27  27 100 W3        29.98S
SIOUX LOOKOUT  MOCLDY    43  37  81 S7        29.86R
TORONTO        MOCLDY    46  41  81 N8        29.79R
BIG TROUT LK   CLEAR     39  28  65 SW6       29.65F
PICKLE LAKE    NOT AVBL
DRYDEN         CLOUDY    45  37  76 S10       29.86F
KENORA         LGT RAIN  46  36  66 S16       29.82F
$$
                *** MANITOBA***

CITY           SKY/WX    TMP DP  RH WIND       PRES   REMARKS
BRANDON        CLEAR     50  39  66 W8        29.76S
DAUPHIN        CLEAR     63  37  39 W10       29.67S
ISLAND LAKE    MOCLDY    41  32  70 SE3       29.62F
PILOT MOUND      N/A     55  43  62 SW12        N/A
THE PAS        PTCLDY    48  39  71 CALM      29.55R
THOMPSON       PTCLDY    50  39  66 NE15G23   29.59S
WINNIPEG       PTCLDY    54  37  54 S10       29.73S
LYNN LAKE      MOCLDY    46  37  71 E8        29.62R
CHURCHILL      MOCLDY    25  21  86 NE21      29.83S WCI  10
GILLAM         CLOUDY    36  28  75 NE14G22   29.67R
$$
                ***SASKATCHEWAN***

CITY           SKY/WX    TMP DP  RH WIND       PRES   REMARKS
ESTEVAN        CLEAR     57  43  58 SW14      29.81S
KINDERSLEY     CLEAR     54  39  58 S9        29.71S
LLOYDMINSTER   PTCLDY    55  41  58 N12       29.74S
PRINCE ALBERT  PTCLDY    48  37  66 W3        29.69R
REGINA         CLEAR     48  37  66 E7        29.77S
YORKTON        CLEAR     57  41  54 SW13      29.72R
N. BATTLEFORD  MOCLDY    61  37  41 NE8       29.69F
LA RONGE       PTCLDY    64  39  39 NW13G18   29.60R
SASKATOON      MOCLDY    55  43  62 E8        29.70F
SWIFT CURRENT  CLEAR     57  39  51 SW13      29.78S
$$
NOTE: THESE ARE AUTOMATED STATIONS WITH LIMITED QUALITY CONTROL
      "FAIR" INDICATES FEW OR NO CLOUDS BELOW 12,000 FEET WITH NO
      SIGNIFICANT WEATHER AND/OR OBSTRUCTIONS TO VISIBILITY.
      SKY/WX - SKY CONDITION AND SIGNIFICANT WEATHER.
      TMP - AIR TEMPERATURE.    DP   - DEWPOINT TEMPERATURE.
      RH  - RELATIVE HUMIDITY.  PRES - PRESSURE.
      HX  - HEAT INDEX.         WCI  - WIND CHILL INDEX.
$




USA.gov is the U.S. government's official web portal to all federal, state and local government web resources and services.